Retour au catalogue

STARLINK-34603

ActifCommunicationsVLEO
NORAD 65220·PAYLOAD·🇺🇸 United States

Lancé Aug 14, 2025 depuis Cape Canaveral Space Force Station

Loading…

Prochains Passages (prochaines 24 heures)

TLE

FraisSource: CelesTrak SupGP

Époque: Sep 14, 2026, 21:00 UTC

1 65220C 25176Y   26257.87548611 -.00002376  00000+0 -70245-4 0  2576
2 65220  53.1592 349.8011 0001161  83.3398 309.9108 15.34368343    12

Suivez STARLINK-34603 en temps réel avec AllMySat

Download on the App Store